Temperature
7 8 8 8 8 9 8 8 9 9 9 9 9 10 10 10 9 9 9 8 8 8 8 8 8 8 9 9 10 10 10 11 11 11 11 11 12 12 12 12 13 13 13 13
7 7 8 8 8 8 8 8 9 9 9 9 9 9 10 9 9 8 8 8 8 7 7 7 8 8 8 9 9 10 10 10 10 10 10 11 11 11 12 12 12 12 12 12
8 8 7 7 7 7 8 8 9 8 9 9 9 10 10 10 9 8 8 7 7 7 7 7 7 7 8 8 9 9 9 10 10 10 10 10 10 11 11 11 11 12 12 12
7 7 7 7 7 8 8 8 8 8 8 9 9 9 9 9 9 9 8 7 6 6 6 6 6 6 7 7 8 8 9 9 9 9 9 10 10 10 10 11 11 11 11 11
7 7 7 7 8 8 8 8 8 8 8 8 9 8 10 9 8 8 8 7 6 6 5 5 5 6 6 7 7 8 8 8 9 9 9 9 9 10 10 10 10 10 11 11
7 7 7 7 8 8 8 8 8 8 8 8 9 8 9 9 8 8 7 6 5 5 5 5 5 6 6 6 7 7 8 8 8 9 9 9 9 9 9 9 10 10 10 10
7 7 7 7 8 8 8 8 9 9 9 10 8 8 9 8 8 7 7 6 5 5 5 5 5 5 6 6 6 7 7 7 8 8 8 8 8 9 9 9 9 9 9 10
7 8 8 8 8 8 8 8 9 9 10 10 8 9 9 8 7 6 6 5 5 4 4 4 4 4 5 6 6 6 6 6 7 7 8 8 8 8 8 8 9 9 9 9
8 8 8 8 8 8 8 8 8 8 8 9 10 9 9 8 7 7 6 5 5 4 4 4 4 4 5 5 5 5 6 6 6 7 7 7 7 8 8 8 8 8 8 8
7 7 8 8 8 8 8 8 8 8 9 10 10 10 10 8 8 7 7 6 5 4 4 3 4 4 4 4 5 5 6 6 6 6 6 7 7 7 7 8 8 8 8 8
7 7 8 8 8 8 7 7 8 8 8 9 10 11 9 9 8 7 6 5 5 4 3 3 3 4 4 4 5 5 5 5 5 5 6 6 7 7 7 7 7 7 7 7
7 7 8 8 8 7 7 8 8 8 8 8 9 10 8 8 8 7 6 5 4 4 3 3 3 4 4 4 5 5 5 5 5 5 5 6 6 6 6 7 7 7 7 7
7 7 8 9 8 7 7 7 7 7 7 8 9 10 8 8 7 6 6 5 4 4 3 3 3 3 4 4 4 5 4 5 5 5 5 5 5 6 6 6 6 6 6 6
7 7 7 8 9 8 7 7 7 7 7 8 9 9 9 8 8 7 6 5 4 4 3 3 3 3 3 4 4 4 4 4 4 4 5 5 5 5 5 5 5 5 5 5
7 7 7 7 7 7 7 7 7 6 7 8 9 8 9 8 8 7 6 5 4 4 3 3 3 3 3 4 4 4 4 4 4 4 4 4 4 5 5 5 5 5 5 5
6 6 6 6 6 6 6 7 7 7 7 7 8 8 9 8 7 6 5 5 4 4 4 3 3 3 3 3 4 4 4 4 4 4 4 4 4 4 4 4 4 4 4 4
6 6 6 7 7 6 8 8 7 7 7 7 8 9 8 7 7 6 5 5 4 4 4 4 4 4 4 4 3 3 4 4 3 3 3 3 4 4 4 4 4 4 4 4
5 6 6 7 7 7 9 7 7 7 7 7 7 8 8 7 6 5 5 5 4 4 4 4 4 4 4 4 3 3 3 3 3 3 3 3 3 3 3 3 3 3 3 3
5 6 6 6 7 8 9 7 6 7 8 8 7 7 7 5 5 6 5 5 5 4 4 4 4 4 4 4 3 3 3 3 3 3 3 3 3 3 3 3 3 3 3 3
4 5 6 6 6 8 9 7 6 7 8 8 7 7 6 5 7 8 6 5 5 5 4 4 4 4 4 4 3 3 3 3 3 3 3 3 3 2 2 2 2 2 2 2
5 5 5 6 6 8 8 6 6 8 10 7 6 6 5 6 7 6 6 5 5 5 5 5 4 4 4 4 3 3 3 3 3 2 2 2 2 2 2 2 2 2 2 2
6 6 5 6 6 8 7 5 7 9 7 6 6 6 5 5 5 6 5 5 5 5 5 5 5 4 4 4 3 3 3 3 2 2 2 2 2 2 2 2 1 1 1 1
5 6 7 7 8 8 5 6 7 6 6 5 5 5 5 5 5 5 5 5 5 5 5 4 4 4 4 4 3 3 3 2 2 2 2 2 2 1 1 1 1 1 0 0
5 3 4 5 6 6 5 5 6 6 6 6 6 5 5 5 5 5 5 5 5 5 5 4 4 4 4 4 3 3 3 2 2 2 2 2 1 1 1 0 0 0 -0 -0
6 4 4 5 6 6 6 6 6 6 6 6 6 5 5 5 5 5 5 5 5 5 5 4 4 4 4 3 3 3 2 2 2 2 2 1 1 1 0 0 -0 -0 -1 -1
4 4 5 7 7 7 7 7 6 6 6 6 5 5 5 5 5 5 5 5 5 4 4 4 4 3 3 3 3 2 2 2 2 1 1 1 1 0 -0 -0 -0 -1 -1 -1
Wind_Speed
2 2 2 3 2 1 2 3 4 4 3 4 6 8 9 8 5 5 6 7 8 9 9 8 7 6 5 5 6 7 7 6 5 5 5 5 6 6 6 5 6 8 8 9
3 2 2 2 3 3 3 3 3 3 2 3 6 8 6 4 4 5 6 8 9 10 9 9 7 6 5 5 5 6 5 6 6 5 5 5 5 5 5 4 5 6 7 7
2 1 2 3 4 4 4 5 4 3 4 3 4 4 1 2 4 5 7 8 9 9 9 9 8 7 6 6 5 4 4 4 5 5 5 5 4 4 4 4 4 5 6 7
0 1 2 3 3 4 3 4 5 5 4 1 2 3 2 3 5 7 9 9 10 10 9 9 9 8 7 6 5 4 3 3 4 5 5 6 6 5 5 4 4 4 5 5
0 1 2 2 2 4 2 3 4 4 3 3 2 4 2 2 4 7 9 10 10 11 10 10 10 9 8 7 5 4 3 2 2 3 5 6 5 4 3 4 4 4 3 3
1 1 2 2 2 3 2 2 2 2 2 3 2 4 2 1 4 7 8 9 10 10 10 10 10 9 8 7 6 5 4 3 1 2 3 5 6 5 4 4 4 3 3 3
1 0 1 1 1 2 2 2 2 3 3 2 1 3 2 1 3 4 7 8 9 9 10 10 11 10 8 8 7 6 5 4 2 1 2 3 4 4 4 4 4 3 3 3
1 1 1 1 2 1 2 2 2 2 2 0 2 3 1 0 2 3 5 6 8 9 9 10 10 10 9 8 7 7 6 5 4 3 2 1 2 2 2 3 3 3 3 3
2 1 1 1 2 2 2 1 2 1 2 2 2 2 2 1 2 3 5 6 8 8 9 9 10 10 9 9 8 7 6 5 5 4 3 2 2 1 1 2 2 2 2 3
2 2 2 2 2 1 1 0 1 2 2 2 2 2 2 3 3 2 4 5 6 7 8 9 9 9 8 7 7 7 7 6 6 5 4 2 2 1 1 1 1 1 2 2
1 2 2 1 1 1 1 1 1 1 2 3 2 0 1 3 2 2 2 4 4 5 6 7 7 8 7 7 6 6 6 6 5 5 4 3 1 1 1 1 1 1 1 2
1 2 2 2 1 1 2 1 1 2 2 2 3 1 2 1 1 2 2 3 3 4 4 5 6 7 7 7 7 6 6 5 5 4 4 3 2 1 1 0 1 1 2 2
1 2 3 1 2 2 2 2 2 2 2 3 3 1 2 1 2 2 2 2 3 3 4 4 5 6 6 6 6 6 6 5 5 4 4 3 3 2 2 1 1 1 2 2
1 2 4 4 3 3 5 5 4 4 4 4 6 5 4 4 4 4 3 3 3 3 3 4 4 5 5 5 5 5 5 5 4 4 4 4 3 2 2 2 2 2 2 2
1 3 5 8 8 7 9 10 8 9 8 7 6 6 8 6 5 4 4 3 3 3 3 3 4 4 4 4 4 4 4 4 4 4 4 4 4 3 3 2 2 2 2 2
2 3 4 6 4 6 9 11 11 10 10 10 11 10 7 4 4 4 5 5 4 4 4 3 3 3 4 4 4 4 3 3 3 3 4 4 4 4 3 3 2 2 2 2
2 2 4 4 5 7 6 6 8 6 7 8 8 6 3 4 5 5 5 6 6 5 5 4 3 3 3 3 3 3 3 2 2 3 4 4 4 4 4 4 4 4 3 3
3 2 3 5 6 4 0 1 4 6 7 9 8 7 6 6 5 5 6 7 7 6 5 4 4 4 3 3 2 2 2 2 3 3 4 4 4 4 4 5 5 5 4 3
6 4 3 3 4 7 4 2 4 4 4 6 8 7 6 4 4 5 5 7 7 6 5 4 4 3 3 2 2 1 2 2 2 3 3 4 4 4 4 5 5 5 4 4
4 4 4 3 4 4 0 2 2 2 3 3 5 5 3 3 4 2 2 4 5 5 4 3 3 2 2 2 1 0 1 2 2 3 3 3 3 3 3 4 4 4 4 4
4 4 6 7 6 7 3 2 3 3 0 2 4 5 5 6 5 2 2 4 4 4 4 3 3 3 3 2 1 1 1 2 3 3 2 2 2 3 3 3 3 4 4 4
6 6 6 6 6 6 4 5 6 3 1 2 4 5 7 7 5 4 4 4 4 4 4 4 4 3 3 2 2 2 2 3 2 2 1 2 2 2 2 3 3 3 3 4
7 7 4 8 7 2 4 7 5 3 5 5 5 6 6 6 6 6 5 5 5 5 5 4 5 4 3 3 3 3 3 2 2 2 1 1 2 2 2 2 3 3 3 3
5 5 6 8 11 11 10 11 11 9 10 9 7 7 8 8 7 7 6 6 6 6 5 5 5 5 5 4 4 4 3 2 2 2 2 1 2 2 2 2 2 2 3 3
7 6 6 10 11 10 9 9 9 8 7 7 7 8 9 8 8 8 7 7 7 6 6 6 6 6 6 5 4 4 3 3 3 3 2 2 2 2 2 2 2 3 3 3
11 12 10 11 9 7 7 4 5 6 7 7 7 7 8 8 9 8 8 7 6 6 6 6 7 7 6 5 5 4 4 4 4 3 3 2 2 2 3 3 3 3 4 5
Wind_Direction
132 158 176 190 210 185 190 226 260 278 287 291 278 286 304 317 316 317 324 328 326 324 326 326 324 317 303 285 271 258 249 240 229 219 214 213 211 201 195 197 199 201 201 199
145 182 208 203 204 208 220 237 263 287 287 280 284 291 304 325 337 344 344 341 335 331 335 339 334 329 323 311 297 279 253 238 228 220 217 217 213 201 196 188 194 198 200 202
154 100 189 200 208 219 240 241 254 279 306 263 284 273 248 354 360 2 358 351 344 339 338 338 339 336 333 326 310 290 267 245 231 222 214 207 196 191 196 188 196 205 202 200
127 209 204 219 225 230 246 237 243 257 271 273 302 277 255 330 345 359 358 356 351 350 348 345 343 338 334 332 325 308 286 257 234 211 202 203 195 196 201 199 195 200 204 205
184 207 218 230 258 236 243 251 243 245 253 269 240 260 263 325 330 346 354 356 355 358 357 354 353 349 347 345 344 342 335 308 241 210 199 198 197 201 198 194 188 194 201 206
295 291 267 275 286 230 230 238 218 209 230 247 231 241 263 308 316 333 350 355 357 0 1 360 357 355 356 358 4 12 6 357 337 196 195 189 185 187 184 191 193 198 204 208
41 161 239 250 261 176 221 240 219 206 215 232 159 240 264 310 327 332 343 351 358 2 3 4 2 1 1 4 11 14 13 19 24 102 155 181 184 182 190 198 199 200 207 217
14 54 6 293 283 250 240 267 292 286 270 255 202 242 239 114 348 352 353 358 5 6 6 7 5 5 6 7 11 14 18 22 29 41 59 102 137 169 192 200 199 203 215 228
359 348 339 304 279 251 234 231 327 286 280 263 230 234 218 210 322 350 358 3 4 2 3 6 7 8 9 10 12 16 21 27 29 32 39 51 84 123 161 183 199 218 226 230
321 293 296 303 222 162 310 265 222 252 285 280 255 233 224 217 262 313 349 353 354 356 359 2 5 7 6 8 10 17 23 27 28 27 28 39 66 90 130 148 176 213 230 234
283 283 291 270 278 316 156 166 265 264 291 293 291 222 131 205 224 264 318 335 344 353 356 359 0 1 3 9 16 20 20 21 22 22 23 32 56 79 107 114 201 240 243 249
305 287 285 277 292 281 259 269 253 278 268 262 277 276 105 195 209 241 288 320 338 347 349 354 358 359 2 6 10 13 13 15 14 13 18 26 31 42 54 41 264 255 253 255
283 280 296 219 182 189 250 247 252 274 269 242 251 250 123 200 233 244 268 296 317 329 343 353 356 355 358 0 2 4 6 6 7 9 13 17 18 19 14 345 316 296 269 265
260 254 256 277 309 301 276 260 238 232 244 251 245 263 260 255 254 251 255 272 292 309 329 344 348 347 351 354 356 355 358 0 3 7 10 10 6 355 345 335 318 288 274 272
286 264 259 269 273 271 266 261 242 231 240 250 261 263 267 263 251 245 243 251 272 295 314 326 331 335 343 351 352 348 352 356 0 6 10 5 1 355 346 336 322 308 296 282
312 281 285 276 257 273 268 259 244 239 238 242 258 270 268 254 236 235 234 237 251 267 282 294 307 319 331 341 345 346 341 349 358 4 3 1 5 9 7 4 358 346 324 297
281 289 297 282 306 296 268 247 219 218 218 221 237 247 229 236 238 239 236 233 244 253 261 272 283 296 309 320 333 338 338 341 359 7 8 8 11 8 5 14 18 13 359 359
248 268 277 297 313 262 287 119 217 227 243 232 249 258 247 253 262 255 240 237 243 245 250 261 272 281 292 306 321 337 357 15 17 11 7 4 8 9 10 20 19 15 15 13
224 236 263 280 291 281 277 212 200 218 256 227 237 255 261 260 263 252 230 232 238 239 243 251 255 261 269 285 309 345 6 19 16 1 354 356 4 6 10 16 10 7 10 8
189 220 241 249 267 260 285 137 183 221 248 193 216 235 233 204 243 250 202 232 239 241 242 246 248 250 252 266 272 276 347 358 344 333 336 350 360 0 3 4 3 1 3 358
187 203 222 234 250 268 263 164 172 223 279 161 214 221 208 216 254 295 231 237 237 238 236 231 226 233 244 245 220 221 289 301 302 313 326 344 353 355 355 358 359 358 357 355
208 204 209 208 226 252 161 162 207 266 1 231 234 230 229 240 258 249 240 237 229 230 228 221 221 231 235 220 206 220 253 275 288 294 307 329 341 351 352 352 351 350 347 345
222 219 221 216 234 282 195 222 249 267 261 257 247 243 237 245 247 242 239 238 233 229 224 219 221 228 229 220 216 231 255 263 261 262 282 307 325 337 343 340 336 337 338 336
234 216 233 254 259 257 253 253 257 252 252 259 254 247 234 239 244 241 239 237 233 231 228 223 220 225 229 223 224 239 252 248 239 244 263 285 302 314 322 321 321 321 326 325
235 195 225 251 266 275 259 242 247 251 250 253 251 242 236 239 243 240 239 238 233 230 224 220 223 229 234 227 227 235 238 231 232 243 257 271 279 290 298 301 299 294 297 307
219 214 223 245 243 240 259 245 242 253 257 254 251 252 241 236 242 242 241 238 235 233 225 222 226 230 233 228 227 229 227 223 228 238 248 259 269 275 279 287 291 280 276 302
Height
1502 1502 1501 1501 1501 1501 1501 1500 1498 1498 1499 1498 1494 1491 1489 1489 1487 1485 1483 1481 1478 1476 1472 1470 1467 1466 1465 1465 1465 1465 1466 1468 1470 1471 1473 1476 1478 1481 1483 1486 1489 1492 1495 1498
1502 1502 1502 1503 1504 1503 1502 1500 1497 1497 1497 1496 1492 1489 1487 1487 1486 1485 1483 1480 1477 1474 1470 1467 1465 1463 1462 1461 1461 1461 1462 1464 1465 1467 1469 1472 1474 1476 1479 1481 1484 1487 1490 1493
1499 1502 1503 1503 1503 1502 1500 1498 1496 1497 1496 1494 1492 1485 1485 1485 1485 1484 1482 1480 1477 1473 1470 1467 1463 1461 1460 1458 1458 1458 1458 1459 1461 1463 1466 1468 1470 1471 1474 1476 1480 1483 1486 1489
1501 1503 1503 1502 1501 1500 1497 1497 1498 1498 1496 1491 1493 1486 1483 1484 1483 1482 1481 1479 1476 1473 1469 1466 1463 1460 1458 1456 1455 1455 1455 1456 1458 1460 1462 1463 1465 1466 1470 1473 1476 1479 1482 1484
1501 1502 1502 1500 1500 1500 1497 1497 1497 1496 1496 1495 1491 1490 1481 1483 1482 1482 1481 1479 1476 1473 1469 1465 1462 1459 1456 1454 1453 1452 1452 1453 1455 1456 1458 1460 1462 1464 1466 1469 1472 1475 1477 1480
1502 1503 1503 1501 1500 1500 1499 1497 1496 1495 1494 1491 1487 1488 1481 1483 1484 1483 1482 1480 1477 1473 1469 1465 1462 1458 1455 1453 1451 1450 1450 1450 1451 1453 1455 1457 1459 1461 1463 1466 1468 1471 1473 1475
1500 1501 1502 1502 1499 1498 1498 1495 1490 1488 1486 1482 1488 1487 1483 1483 1485 1484 1482 1480 1477 1474 1470 1466 1462 1458 1455 1453 1451 1450 1449 1449 1450 1451 1453 1454 1456 1458 1461 1463 1465 1467 1469 1471
1500 1499 1500 1500 1499 1497 1496 1495 1490 1484 1478 1478 1486 1482 1481 1484 1485 1485 1483 1481 1478 1475 1471 1467 1463 1459 1456 1453 1452 1450 1449 1448 1448 1449 1450 1452 1453 1456 1458 1460 1462 1464 1465 1467
1500 1500 1500 1500 1499 1498 1495 1493 1495 1492 1488 1483 1476 1480 1481 1484 1484 1484 1482 1480 1478 1475 1472 1468 1464 1461 1457 1455 1453 1451 1449 1448 1448 1448 1449 1450 1451 1453 1455 1457 1459 1460 1462 1464
1504 1503 1499 1500 1499 1499 1498 1496 1494 1492 1485 1475 1472 1474 1474 1480 1481 1482 1482 1480 1479 1476 1473 1469 1466 1462 1459 1457 1454 1452 1450 1449 1448 1448 1448 1448 1450 1452 1453 1454 1456 1457 1458 1460
1506 1504 1499 1498 1497 1496 1497 1497 1495 1492 1490 1481 1473 1471 1475 1477 1479 1481 1481 1481 1479 1477 1474 1471 1468 1464 1461 1458 1456 1453 1451 1450 1448 1448 1447 1447 1448 1449 1450 1451 1452 1454 1455 1456
1506 1504 1498 1496 1498 1498 1497 1495 1494 1491 1488 1487 1479 1476 1478 1479 1480 1481 1480 1480 1479 1477 1475 1472 1469 1466 1462 1459 1457 1454 1452 1451 1449 1448 1447 1447 1447 1448 1448 1449 1450 1451 1452 1453
1506 1504 1497 1491 1497 1498 1496 1495 1495 1495 1492 1486 1480 1475 1478 1479 1480 1480 1480 1479 1478 1476 1474 1472 1469 1466 1463 1461 1458 1456 1454 1452 1450 1449 1447 1446 1446 1446 1446 1447 1448 1448 1449 1449
1506 1503 1500 1493 1490 1494 1493 1493 1494 1495 1490 1482 1477 1473 1475 1477 1477 1478 1478 1477 1477 1475 1474 1472 1470 1467 1464 1462 1459 1457 1455 1453 1451 1450 1448 1447 1446 1445 1445 1445 1445 1445 1446 1446
1505 1501 1499 1496 1495 1495 1493 1490 1490 1492 1486 1483 1474 1475 1472 1474 1475 1476 1476 1476 1475 1474 1472 1471 1469 1467 1464 1462 1460 1458 1456 1454 1452 1450 1448 1447 1446 1445 1444 1444 1443 1443 1443 1443
1505 1501 1499 1495 1493 1493 1490 1485 1485 1485 1483 1480 1477 1475 1471 1473 1474 1475 1475 1474 1474 1473 1471 1470 1468 1466 1464 1462 1460 1458 1456 1454 1452 1450 1448 1447 1446 1444 1444 1443 1442 1441 1440 1440
1504 1502 1498 1489 1490 1489 1479 1476 1478 1478 1477 1476 1473 1470 1471 1472 1473 1473 1473 1473 1472 1471 1470 1469 1467 1466 1464 1462 1460 1458 1456 1454 1453 1451 1449 1447 1446 1444 1443 1441 1440 1439 1438 1438
1504 1502 1499 1493 1488 1484 1473 1476 1476 1475 1473 1473 1472 1470 1471 1471 1472 1471 1471 1471 1470 1469 1468 1467 1466 1465 1463 1462 1460 1458 1456 1454 1453 1451 1449 1447 1445 1444 1442 1441 1439 1438 1437 1435
1504 1502 1498 1495 1486 1475 1471 1474 1475 1474 1469 1470 1470 1469 1470 1470 1470 1468 1468 1468 1468 1467 1466 1466 1465 1463 1462 1461 1459 1457 1455 1454 1452 1450 1449 1447 1445 1444 1442 1440 1439 1437 1436 1434
1504 1502 1499 1495 1490 1477 1468 1473 1474 1475 1467 1467 1468 1468 1469 1469 1467 1464 1465 1465 1465 1464 1464 1463 1463 1462 1460 1459 1458 1456 1455 1453 1451 1450 1448 1447 1445 1443 1442 1440 1438 1437 1435 1433
1498 1498 1496 1492 1487 1471 1469 1472 1474 1470 1462 1466 1466 1466 1466 1466 1465 1464 1463 1462 1462 1462 1462 1461 1460 1460 1459 1458 1456 1455 1453 1452 1450 1449 1447 1446 1444 1442 1441 1439 1438 1436 1434 1432
1489 1488 1488 1486 1484 1472 1468 1470 1468 1463 1463 1463 1463 1463 1463 1463 1462 1461 1460 1460 1459 1459 1459 1459 1458 1457 1457 1456 1455 1453 1452 1451 1449 1448 1446 1445 1443 1442 1440 1438 1437 1435 1433 1431
1485 1480 1476 1475 1468 1464 1464 1463 1462 1462 1461 1461 1460 1460 1460 1459 1458 1458 1457 1457 1457 1456 1456 1456 1455 1455 1454 1453 1452 1451 1450 1449 1448 1446 1445 1443 1442 1440 1439 1437 1435 1433 1431 1429
1479 1480 1478 1472 1462 1461 1460 1459 1458 1458 1457 1457 1457 1456 1456 1455 1455 1454 1454 1454 1453 1453 1453 1452 1452 1451 1451 1450 1449 1449 1448 1447 1446 1444 1443 1442 1440 1439 1437 1435 1433 1431 1429 1427
1471 1474 1471 1465 1458 1457 1454 1453 1453 1453 1453 1453 1452 1452 1452 1451 1451 1451 1450 1450 1449 1449 1449 1449 1448 1448 1448 1447 1446 1446 1445 1444 1443 1442 1440 1439 1438 1436 1435 1433 1431 1429 1428 1426
1462 1462 1461 1453 1450 1452 1449 1449 1450 1449 1449 1448 1448 1447 1447 1447 1446 1446 1446 1446 1445 1445 1445 1444 1444 1444 1444 1443 1443 1442 1442 1441 1440 1438 1437 1436 1435 1433 1432 1430 1429 1427 1425 1423